Terminal Aerodrome Forecast
Issued by NWS

Home | Current Version | Previous Version | Text Only | Print | Product List | Glossary On
Versions: 1 2 3 4 5 6 7 8 9 10 11 12 13
000
FTUS45 KFGZ 042323
TAFPRC
TAF
KPRC 042323Z 0500/0524 18010G20KT P6SM SCT250
     FM050300 20005KT P6SM SCT250
     FM051600 20020G30KT P6SM SCT250=

USA.gov is the U.S. government's official web portal to all federal, state and local government web resources and services.